TimeAST,TemperatureF,Dew PointF,Humidity,Sea Level PressureIn,VisibilityMPH,Wind Direction,Wind SpeedMPH,Gust SpeedMPH,PrecipitationIn,Events,Conditions,WindDirDegrees,DateUTC
12:56 AM,79.0,73.0,82,30.00,10.0,Calm,Calm,-,N/A,,Scattered Clouds,0,2012-11-28 04:56:00
1:56 AM,78.1,73.0,84,29.99,10.0,Calm,Calm,-,N/A,,Scattered Clouds,0,2012-11-28 05:56:00
2:56 AM,78.1,73.0,84,29.97,10.0,Calm,Calm,-,N/A,,Scattered Clouds,0,2012-11-28 06:56:00
3:56 AM,77.0,73.9,90,29.96,10.0,Calm,Calm,-,0.01,,Scattered Clouds,0,2012-11-28 07:56:00
4:56 AM,77.0,73.0,88,29.96,10.0,Calm,Calm,-,N/A,,Scattered Clouds,0,2012-11-28 08:56:00
5:56 AM,77.0,73.0,88,29.97,10.0,Calm,Calm,-,N/A,,Mostly Cloudy,0,2012-11-28 09:56:00
6:56 AM,77.0,72.0,84,29.99,10.0,Calm,Calm,-,N/A,,Scattered Clouds,0,2012-11-28 10:56:00
7:56 AM,78.1,73.0,84,30.01,10.0,Calm,Calm,-,0.01,Rain,Light Rain,0,2012-11-28 11:56:00
8:56 AM,82.0,73.9,76,30.02,10.0,Calm,Calm,-,0.02,,Scattered Clouds,0,2012-11-28 12:56:00
9:56 AM,82.9,75.0,77,30.03,10.0,ENE,6.9,-,N/A,,Scattered Clouds,70,2012-11-28 13:56:00
10:56 AM,84.9,73.0,67,30.02,10.0,ENE,10.4,-,N/A,,Scattered Clouds,70,2012-11-28 14:56:00
11:56 AM,87.1,75.0,67,30.01,10.0,NE,13.8,-,N/A,,Scattered Clouds,50,2012-11-28 15:56:00
12:56 PM,87.1,73.0,63,29.97,10.0,NE,16.1,-,N/A,,Scattered Clouds,50,2012-11-28 16:56:00
1:56 PM,86.0,75.0,70,29.95,10.0,ENE,15.0,-,N/A,,Scattered Clouds,60,2012-11-28 17:56:00
2:56 PM,84.0,73.9,72,29.94,10.0,ENE,17.3,-,N/A,,Scattered Clouds,60,2012-11-28 18:56:00
3:56 PM,82.9,72.0,69,29.93,10.0,East,13.8,-,N/A,,Scattered Clouds,90,2012-11-28 19:56:00
4:56 PM,82.9,73.0,72,29.94,10.0,ENE,9.2,-,N/A,,Scattered Clouds,60,2012-11-28 20:56:00
5:15 PM,80.6,73.4,79,29.94,1.8,East,15.0,27.6,0.00,Rain,Light Rain,100,2012-11-28 21:15:00
5:21 PM,78.8,73.4,83,29.94,10.0,East,8.1,27.6,0.11,Rain,Light Rain,100,2012-11-28 21:21:00
5:56 PM,80.1,73.9,81,29.94,10.0,East,5.8,-,0.12,,Scattered Clouds,100,2012-11-28 21:56:00
6:56 PM,78.1,73.0,84,29.96,9.0,ENE,10.4,-,0.00,Rain,Light Rain,70,2012-11-28 22:56:00
7:56 PM,79.0,73.9,84,29.97,10.0,East,8.1,-,0.00,,Scattered Clouds,90,2012-11-28 23:56:00
8:56 PM,80.1,73.9,81,29.98,8.0,Calm,Calm,-,0.00,Rain,Rain,0,2012-11-29 00:56:00
9:56 PM,79.0,73.9,84,29.99,10.0,East,4.6,-,0.03,,Scattered Clouds,100,2012-11-29 01:56:00
10:56 PM,79.0,73.9,84,29.99,10.0,Calm,Calm,-,N/A,,Scattered Clouds,0,2012-11-29 02:56:00
11:56 PM,79.0,73.9,84,29.99,10.0,Calm,Calm,-,N/A,,Scattered Clouds,0,2012-11-29 03:56:00